Theta_e
324 324 324 326 327 328 328 329 330 330 330 330 333 331 332 328 325 316 313 320 322 329 326 315 313 305 305 303 304 301 295 293 298 296 295 300 299 302 308 307 309 312 309 312 322
323 323 324 324 326 326 328 328 328 329 330 330 331 331 331 328 320 314 323 329 330 327 315 312 308 303 302 302 302 299 293 296 302 297 297 300 300 303 305 306 305 308 312 317 326
321 322 323 323 325 326 326 327 326 327 329 330 330 329 328 325 316 315 329 331 329 324 317 313 308 301 299 299 301 299 295 300 301 300 302 301 298 301 304 301 305 308 313 319 324
320 321 322 322 323 325 325 325 326 327 329 328 328 328 325 323 305 321 331 331 329 317 314 309 305 300 298 297 299 297 301 303 305 301 300 299 301 299 303 303 304 310 316 319 321
319 319 320 321 321 324 325 324 325 326 326 328 327 326 321 313 313 323 329 330 321 314 312 309 303 301 299 298 299 297 299 303 304 302 298 298 297 297 299 302 309 315 317 318 319
319 319 319 320 320 323 324 324 324 325 326 328 327 325 315 306 322 324 326 324 320 316 312 312 309 306 302 301 300 302 301 302 303 298 297 296 295 295 297 303 309 314 314 315 317
319 318 318 319 319 320 323 323 323 324 325 327 326 321 312 309 320 324 324 320 320 318 312 315 315 308 302 299 305 304 297 299 300 299 297 298 295 295 298 305 307 311 311 314 316
318 318 317 318 318 320 322 322 322 322 324 326 326 317 307 319 319 319 320 318 320 320 317 318 317 311 305 303 297 297 297 295 300 296 297 298 292 298 300 305 304 308 310 312 314
317 317 317 317 317 318 320 321 321 321 323 324 316 312 304 320 313 317 317 314 316 317 318 318 315 308 306 296 294 291 286 290 297 298 297 296 292 298 299 304 302 304 308 310 312
316 316 316 317 317 318 318 320 318 315 316 315 313 304 306 307 313 314 318 317 313 312 309 309 307 303 300 297 290 287 286 289 293 297 293 292 292 296 297 298 300 300 302 308 311
312 316 316 316 317 317 315 310 302 300 300 297 300 298 302 309 314 312 317 314 312 308 299 303 298 295 299 301 297 292 288 289 292 297 293 292 293 295 298 295 296 297 297 300 309
312 316 316 316 317 317 311 301 300 301 295 299 300 302 304 310 304 309 316 307 305 298 301 298 294 300 302 302 299 296 293 288 294 297 294 294 294 297 297 297 298 299 299 298 299
312 315 315 315 316 312 306 301 305 303 293 296 298 300 302 306 302 304 310 307 302 299 298 295 296 301 299 298 296 296 294 292 292 294 292 290 290 293 296 298 301 299 301 301 301
309 315 314 315 309 307 302 305 304 300 285 289 293 296 300 301 295 308 310 305 302 297 299 297 300 298 297 296 297 292 298 297 296 293 286 289 283 287 293 295 297 298 299 302 301
312 314 314 314 305 302 304 306 303 297 274 287 291 300 300 296 296 299 309 303 297 298 298 294 295 296 295 295 299 295 299 297 296 291 290 287 286 287 290 292 295 300 300 300 303
312 314 313 310 307 306 306 306 301 282 273 285 292 292 292 294 293 302 303 305 302 298 297 296 299 299 297 299 300 299 296 295 293 291 285 288 287 284 290 293 295 300 301 301 302
310 313 311 308 301 308 307 300 283 276 281 284 287 291 290 290 291 293 295 295 293 289 289 294 295 298 299 295 298 297 292 284 282 283 281 284 285 290 291 294 297 298 299 300 300
311 312 309 306 308 308 303 290 276 273 277 288 288 290 285 289 289 289 291 290 295 291 285 286 284 294 297 295 293 293 292 283 277 278 279 284 282 287 295 300 298 297 299 298 298
312 307 304 306 308 307 295 281 277 277 285 287 287 284 285 287 286 287 286 288 291 295 287 284 285 295 296 297 298 293 289 290 283 271 276 281 285 290 292 294 296 296 296 298 300
305 301 301 307 309 302 289 282 280 287 289 289 282 286 281 285 283 285 284 288 289 295 295 289 284 292 295 298 298 295 296 287 285 277 273 279 280 285 287 292 296 296 297 297 297
302 294 302 308 306 294 283 283 284 289 291 286 285 283 285 284 284 284 283 287 291 290 296 294 290 287 293 292 292 292 291 291 290 283 277 276 281 287 292 293 296 297 298 296 296
294 285 304 306 289 289 285 283 290 289 292 290 291 287 284 286 284 284 283 287 291 292 288 294 289 284 289 292 296 296 293 293 286 283 282 279 284 288 291 291 291 292 294 294 294
286 290 303 301 283 284 286 284 288 288 288 287 287 288 289 285 281 285 285 289 291 292 290 292 286 281 283 288 293 292 294 294 293 287 284 282 285 288 285 286 288 289 292 294 292
288 285 286 293 287 285 284 283 283 289 287 287 286 288 287 286 286 282 286 290 291 292 297 296 286 284 279 282 288 289 292 294 292 287 287 286 289 292 289 287 289 289 290 292 292
286 282 284 281 281 282 283 284 283 281 288 287 284 284 284 282 283 281 285 287 290 293 291 291 284 286 287 287 288 290 290 292 291 291 287 290 290 294 295 291 292 289 290 290 291
284 284 284 283 283 284 285 281 283 282 284 282 282 284 284 282 284 281 284 286 286 290 288 291 283 287 283 287 287 285 287 289 293 293 292 292 291 298 296 296 295 292 291 290 290
286 285 285 285 281 279 277 281 283 284 285 287 285 285 284 285 288 289 291 290 289 287 287 288 286 282 280 285 285 281 285 287 288 294 294 289 294 296 295 294 295 297 297 291 291
Wind_Speed
22 22 20 17 15 14 14 16 14 13 13 13 13 12 12 16 9 3 6 6 4 2 2 1 3 4 3 2 3 3 4 1 3 5 4 3 4 2 1 6 1 2 4 3 10
24 23 22 20 17 15 12 13 17 14 13 12 14 13 13 15 4 5 4 7 3 6 3 3 2 3 3 2 2 4 3 7 3 3 3 4 3 7 4 4 3 3 2 3 12
24 23 23 22 19 17 15 11 15 16 12 10 13 16 16 9 4 7 11 6 6 6 4 3 3 3 2 1 2 4 5 3 2 1 2 4 2 3 7 4 6 9 6 9 13
25 21 24 23 21 19 16 14 12 13 13 12 15 15 15 4 12 3 11 10 5 7 6 5 4 3 3 3 2 3 5 3 4 2 1 4 6 4 6 5 2 8 7 12 16
25 22 23 24 23 20 17 15 13 12 13 14 18 18 7 6 6 2 7 7 2 4 6 5 4 3 3 2 3 2 3 3 4 5 3 2 3 3 6 6 3 5 8 13 11
26 23 23 24 24 21 18 16 14 12 14 16 19 17 4 13 4 9 14 5 3 2 4 4 5 1 1 1 4 3 5 4 1 1 2 1 2 2 4 4 4 7 9 9 11
27 25 25 24 25 23 19 17 14 12 15 19 20 6 3 12 2 9 12 9 3 0 4 5 3 5 3 1 3 2 1 4 4 4 3 3 6 6 5 2 5 7 7 7 9
29 26 26 25 26 22 18 16 14 11 14 18 18 4 4 2 1 6 10 9 8 7 7 4 6 4 2 4 3 4 1 2 3 5 3 8 10 5 6 6 9 9 8 8 9
29 27 26 26 26 23 21 15 12 12 14 20 7 6 6 2 6 3 5 13 9 7 6 6 6 3 3 2 1 6 3 4 6 8 3 5 8 6 5 8 10 9 7 7 7
30 28 28 27 26 24 21 19 17 13 7 6 1 3 3 6 5 5 3 13 8 12 6 4 4 2 3 4 9 5 4 3 6 4 3 4 10 8 2 7 10 8 7 8 9
25 30 30 28 27 26 19 13 7 3 2 4 4 3 6 5 3 3 6 6 9 3 5 4 5 7 5 7 2 5 2 5 4 3 4 7 13 9 11 4 8 9 8 9 11
35 32 31 30 29 27 16 12 16 8 10 6 4 5 1 1 7 9 7 9 9 6 9 5 14 16 9 6 2 4 1 3 5 4 4 7 14 9 8 8 11 12 13 12 7
22 32 31 32 29 19 19 11 7 11 7 3 1 4 3 2 5 13 13 6 8 8 11 7 2 10 7 5 6 5 6 3 4 6 4 5 12 11 7 9 11 9 12 10 13
21 34 33 33 23 17 19 9 8 5 5 6 5 4 2 4 2 5 11 5 3 13 10 9 5 14 10 15 15 16 8 9 6 3 5 1 12 8 6 10 10 10 11 16 13
28 34 36 36 18 20 23 12 7 6 8 7 6 2 7 7 5 5 4 2 7 7 8 6 8 13 12 8 12 4 7 6 2 3 3 5 6 7 1 6 9 13 12 14 17
26 36 38 21 11 17 13 13 5 6 8 6 8 11 9 5 2 5 7 1 2 4 1 4 1 11 7 7 13 7 5 3 3 0 11 11 8 6 9 9 8 17 12 12 13
29 39 33 15 15 21 16 11 6 8 4 9 8 12 18 9 5 6 17 18 13 11 10 5 6 2 5 6 4 6 9 3 4 6 11 2 9 19 7 9 14 13 13 12 10
46 39 25 8 19 21 13 13 7 5 7 3 12 15 14 10 8 5 11 15 20 6 4 10 8 19 9 7 5 18 9 6 8 6 4 3 11 9 13 18 11 10 11 7 8
39 17 14 17 21 17 16 15 9 8 9 11 17 17 9 8 7 6 8 12 13 16 11 7 11 4 5 7 14 6 13 1 3 2 2 6 10 9 11 12 13 16 11 15 14
17 12 12 23 22 18 15 11 5 4 9 15 9 11 10 19 7 17 12 10 10 22 5 3 3 6 7 4 9 13 9 4 2 5 6 7 7 14 1 10 15 13 15 14 8
8 10 15 21 15 13 15 5 6 1 3 5 8 8 15 15 11 17 11 6 20 11 15 3 1 2 9 15 18 7 10 6 5 5 5 6 10 10 15 15 18 17 15 9 8
5 6 15 18 12 6 10 10 5 6 5 4 5 5 11 17 14 12 14 16 8 13 16 11 3 4 10 4 9 16 15 15 6 17 5 1 16 4 8 7 5 11 8 7 8
5 7 11 16 6 8 7 6 4 5 4 4 4 1 2 11 8 10 6 8 8 13 11 13 9 9 3 2 2 15 20 18 21 2 15 11 22 4 2 5 8 11 10 8 6
6 8 5 5 2 9 10 7 6 4 2 5 6 4 5 2 5 7 5 2 7 7 10 10 5 10 18 4 5 10 16 21 19 13 23 19 32 21 7 4 9 10 9 8 7
4 3 2 8 4 7 6 8 11 6 2 3 4 5 7 5 2 2 4 4 5 6 4 4 7 13 17 12 10 9 13 24 25 28 19 33 28 39 18 8 10 6 7 5 8
6 7 3 6 10 12 4 9 14 5 8 4 7 8 6 8 9 8 5 3 3 4 1 2 8 4 17 19 21 26 23 20 24 29 24 33 30 38 7 11 14 12 9 10 10
2 4 8 6 5 7 5 5 5 10 6 4 9 7 6 8 4 5 6 7 7 9 10 3 3 6 24 11 13 17 30 31 24 22 22 30 42 11 16 13 14 17 18 13 13
Wind_Direction
210 210 211 217 212 216 217 208 188 194 203 207 201 200 166 139 130 151 209 203 172 139 84 37 52 16 4 74 55 116 62 202 231 160 234 167 168 108 75 114 238 210 160 276 148
213 206 205 211 212 206 210 215 204 189 202 212 196 187 161 145 132 223 243 180 159 164 86 93 85 50 33 12 36 92 129 216 215 211 216 197 171 160 145 131 253 281 124 104 144
220 209 201 203 207 206 202 201 214 193 193 197 185 172 158 152 142 229 178 156 132 134 99 103 104 88 110 333 178 150 186 240 297 280 210 171 165 171 134 235 208 207 172 157 165
222 208 203 195 203 203 200 195 207 197 183 181 175 160 153 179 202 263 185 156 127 136 106 97 63 98 140 192 208 154 240 256 297 36 250 173 130 197 192 217 273 216 158 164 174
212 208 202 199 198 198 195 191 197 200 185 172 162 143 163 219 206 305 186 187 147 112 124 121 102 110 171 217 130 204 239 228 258 288 280 158 214 198 241 244 29 131 151 178 181
208 204 201 197 193 195 190 187 190 197 173 159 153 144 175 213 170 158 138 177 189 135 144 89 102 136 151 235 187 223 246 273 267 309 290 224 282 128 279 124 125 164 193 189 192
203 203 198 195 189 193 186 184 186 191 177 157 157 157 179 211 200 179 143 140 116 26 98 32 74 98 115 231 224 251 308 326 236 204 223 156 286 216 234 165 187 212 214 218 215
196 198 195 194 188 183 178 177 177 181 179 165 161 180 186 10 41 124 133 115 113 97 95 100 32 83 74 311 20 151 151 237 276 147 240 146 259 240 213 165 229 220 222 217 224
196 192 189 189 184 176 175 164 155 176 175 171 171 220 160 286 139 157 143 140 105 98 92 73 64 66 15 243 66 23 200 200 295 204 150 180 258 251 172 195 234 226 223 231 240
205 190 186 184 179 172 168 156 112 78 97 89 67 114 246 200 142 144 120 125 107 108 76 75 100 219 140 211 210 189 195 244 210 241 199 227 260 284 241 195 242 260 241 227 237
242 185 182 180 175 171 155 133 112 54 148 193 148 119 122 132 117 159 152 104 123 152 151 173 163 209 205 212 63 126 211 202 243 263 191 236 254 247 266 227 253 259 258 240 229
233 180 175 175 173 165 152 171 174 160 137 43 120 79 114 193 152 186 163 160 162 165 120 137 217 192 140 107 303 123 209 274 290 265 195 274 269 244 247 244 225 228 245 244 238
219 179 173 170 165 148 171 176 151 100 119 76 106 108 147 110 162 181 172 160 169 162 179 175 153 150 181 177 243 267 228 234 242 331 284 316 271 259 241 240 245 229 232 239 231
200 178 168 162 158 159 173 187 137 93 99 174 182 223 96 108 274 164 183 139 186 204 184 231 177 167 180 214 194 224 187 223 242 314 250 122 285 255 219 237 257 249 225 236 234
190 170 163 166 151 173 161 155 121 61 170 163 162 125 139 171 143 204 174 84 169 158 162 202 169 171 188 178 182 233 159 189 196 188 321 242 284 269 254 244 250 251 238 223 231
201 169 161 163 151 152 133 137 65 102 218 163 140 160 146 175 108 108 170 76 153 145 185 203 184 172 181 156 176 133 95 84 79 193 253 233 210 207 218 200 239 240 237 227 227
203 169 163 150 160 146 142 134 145 185 221 152 162 164 176 169 155 149 187 193 187 187 190 198 191 295 140 130 115 185 143 167 209 194 242 262 195 248 273 243 224 234 236 234 218
169 167 155 137 142 147 147 150 190 168 187 152 164 154 182 148 209 158 163 200 217 210 146 206 202 198 188 201 184 198 186 174 198 197 245 136 235 250 225 233 244 242 249 257 243
158 154 146 149 147 152 153 176 176 176 156 139 144 158 170 191 162 148 195 209 208 204 194 179 233 127 182 169 163 163 215 154 79 90 40 220 281 285 237 252 247 257 252 253 244
153 137 145 150 150 153 162 173 113 134 118 132 145 185 168 178 148 187 173 210 210 203 215 200 279 179 180 135 222 188 126 174 150 186 248 251 258 239 211 244 254 254 252 250 249
127 131 147 143 141 158 177 141 124 174 127 133 137 144 184 181 183 190 206 236 199 183 185 93 227 360 135 204 196 172 188 196 153 182 219 258 256 210 213 220 235 247 257 280 249
100 114 143 143 149 166 164 136 117 141 63 82 86 98 163 174 187 188 217 197 187 149 198 179 177 209 220 13 205 220 218 197 195 215 244 351 268 160 224 266 271 283 290 262 232
97 105 135 146 148 145 124 102 114 130 132 123 108 97 227 164 169 196 148 204 139 174 175 171 221 249 260 328 198 216 216 223 228 359 228 229 259 79 353 316 276 271 270 272 263
103 125 47 117 11 131 135 144 107 49 136 108 117 88 103 143 66 201 159 90 164 179 191 160 191 214 228 235 145 212 216 222 219 233 242 234 260 242 296 307 301 285 277 278 235
34 71 75 141 146 113 91 136 141 143 206 127 51 138 133 113 95 320 168 72 51 91 45 201 248 234 252 264 270 282 243 220 223 233 230 246 248 264 242 248 258 281 286 287 262
114 122 68 81 112 122 134 177 159 141 142 192 123 161 170 148 194 176 135 108 187 78 156 249 240 202 257 258 254 265 263 253 245 235 237 250 257 257 241 229 253 252 239 237 226
42 48 95 105 89 97 163 153 153 118 18 107 126 139 184 224 152 129 109 178 197 174 170 202 226 201 255 250 257 250 236 237 245 249 248 244 245 280 256 226 226 246 255 235 227